www.pogodaiklimat.ru

Погода и климат >> Архив погоды >> Сенегал >> Матам


ПОГОДА в Матаме

  • Прогноз погоды в Матаме
  • Монитор погоды в Матаме

АРХИВ ПОГОДЫ в Матаме

Время (UTC), дата Ветер
(напр.,м/с)
 
Видим.   Явления Облачность Т
(С)
Тd
(С)
f
(%)
Тe
(С)
Тes
(С)
Комфортность P
(гПа)
Po
(гПа)
Тmin
(С)
Tmax
(С)
R
(мм)
R24
(мм)
S
(см)
09 13.02 ЮВ 1 10 км 3/0 900 м
[Ac trans]
+24.6 -1.0 18 +23 +27 комфорт 1015.4 1013.5
12 13.02 ЮВ 3 8000 м пыль 4/0
[Ac trans]
+33.0 -1.3 11 +29 +40 жарко 1014.8 1012.9
15 13.02 ЮВ 2 8000 м пыль 1/0
[Ac trans]
+37.2 +0.5 10 +34 +45 очень
жарко
1012.3 1010.4
18 13.02 ЮВ 2 10 км 1/0
[Ac trans]
+35.8 -0.3 10 +32 +33 жарко 1011.8 1009.9 +38.0
21 13.02 В 1 10 км ясно +28.0 +2.7 20 +26 +26 жарко 1013.3 1011.4
00 14.02 В 1 10 км 3/0
[Ac trans]
+25.8 +0.9 20 +24 +24 комфорт 1015.1 1013.2
03 14.02 СВ 2 10 км 4/0
[Ac trans]
+26.0 -2.4 15 +24 +24 комфорт 1013.2 1011.3
06 14.02 В 1 10 км 3/0
[Ac trans]
+23.4 -0.8 20 +22 +22 комфорт 1014.1 1012.2 +22.6
09 14.02 В 1 10 км 4/0
[Ac trans Ci sp]
+24.0 +5.3 30 +24 +28 комфорт 1015.9 1014.0
12 14.02 ЮВ 2 10 км 5/0
[Ci sp]
+34.4 -1.5 10 +31 +45 жарко 1015.6 1013.7
15 14.02 Ю 1 10 км 6/0
[Ci sp]
+39.4 +0.4 9 +36 +48 очень
жарко
1011.5 1009.6
18 14.02 Ю 1 10 км 8/0
[Ac trans Ci sp]
+37.0 +6.7 16 +35 +35 очень
жарко
1011.8 1009.9 +40.0
21 14.02 Ю 1 10 км 8/0
[Ac trans Ci sp]
+28.0 +7.8 28 +28 +28 жарко 1013.4 1011.5
03 15.02 В 1 10 км 6/0
[Ac trans Ci sp]
+26.0 +2.1 21 +25 +25 комфорт 1014.6 1012.7
06 15.02 В 1 10 км 6/0
[Ac trans Ci sp]
+23.5 +2.8 26 +23 +23 комфорт 1014.0 1012.1 +23.0
09 15.02 В 1 10 км 5/0
[Ac trans Ci sp]
+24.0 +7.6 35 +24 +28 комфорт 1014.9 1013.0
12 15.02 Ю 1 10 км 6/0
[Ci sp]
+36.5 +1.2 11 +33 +50 жарко 1014.6 1012.7
15 15.02 ЮВ 2 10 км 6/0
[Ci sp]
+40.8 +4.7 11 +38 +48 очень
жарко
1011.5 1009.6
18 15.02 В 1 10 км 9/0
[Ci sp]
+37.3 +3.0 12 +34 +35 очень
жарко
1011.7 1009.8 +41.2
21 15.02 штиль 0 10 км 8/0
[Cs]
+29.8 +5.7 22 +28 +28 жарко 1013.0 1011.1
00 16.02 СВ 2 10 км 6/0
[Cs]
+28.1 +5.3 23 +27 +27 жарко 1014.3 1012.4
03 16.02 С 1 10 км 5/0
[Ci sp]
+25.5 +3.2 24 +25 +25 комфорт 1012.5 1010.6
06 16.02 С 2 10 км 5/0
[Ci sp]
+23.0 +1.1 24 +22 +22 комфорт 1012.6 1010.7 +22.2
09 16.02 С 1 10 км 8/0
[Ci sp]
+23.7 +3.2 26 +23 +27 комфорт 1014.0 1012.1
12 16.02 С 2 10 км 6/0
[Ci sp]
+32.0 +0.6 13 +29 +43 жарко 1014.5 1012.6
15 16.02 СВ 2 10 км 6/0
[Ci sp]
+39.0 -3.6 7 +35 +46 очень
жарко
1010.6 1008.7
18 16.02 СВ 2 10 км 8/0
[Ci sp]
+36.8 +3.3 12 +34 +34 очень
жарко
1010.2 1008.3 +40.0
21 16.02 С 1 10 км 6/0
[Ci sp]
+29.6 +1.3 16 +27 +27 жарко 1012.3 1010.4
00 17.02 С 2 10 км 6/0
[Cs]
+26.6 +0.4 18 +25 +25 комфорт 1012.5 1010.6
03 17.02 С 2 10 км 5/0
[Ci sp]
+24.0 +1.7 23 +23 +23 комфорт 1010.8 1008.9
06 17.02 С 1 10 км 4/0
[Ci sp]
+21.6 +2.3 28 +21 +21 комфорт 1011.0 1009.1 +21.0
09 17.02 С 2 10 км 6/0
[Ci sp]
+22.5 +2.6 27 +22 +26 комфорт 1013.0 1011.1
12 17.02 ЮВ 2 10 км 4/0
[Ci sp]
+32.0 +1.8 15 +29 +44 жарко 1013.7 1011.8
15 17.02 СВ 2 10 км 6/0
[Ci sp]
+38.0 +6.5 15 +36 +46 очень
жарко
1010.6 1008.7
18 17.02 СВ 1 10 км 4/0
[Ci sp]
+37.4 +5.1 14 +35 +35 очень
жарко
1010.2 1008.3 +39.4
21 17.02 С 2 10 км 10/0
[Ci sp]
+30.1 +5.3 21 +28 +28 жарко 1011.5 1009.6
03 18.02 СВ 1 10 км 3/0
[Ac trans Ci sp]
+23.0 +1.8 25 +22 +22 комфорт 1011.2 1009.3
06 18.02 С 2 10 км 3/0
[Ac trans]
+22.0 +2.4 27 +22 +22 комфорт 1011.0 1009.1 +21.6
09 18.02 С 1 10 км 4/0
[Ac trans Ci sp]
+22.2 +5.2 33 +23 +27 комфорт 1013.2 1011.3
12 18.02 СВ 1 10 км 4/0
[Ac trans Ci sp]
+33.5 +7.5 20 +32 +49 жарко 1013.9 1012.0
15 18.02 СВ 1 10 км 4/0
[Ci sp]
+38.5 +8.2 16 +36 +50 очень
жарко
1009.6 1007.7
18 18.02 СВ 1 10 км 5/0
[Ci sp]
+34.6 +5.5 16 +32 +33 жарко 1008.6 1006.7 +38.5
21 18.02 С 1 10 км 6/0
[Ac trans Ci sp]
+29.0 +4.7 21 +27 +27 жарко 1010.7 1008.8
00 19.02 С 1 10 км 6/0
[Ac trans Ci sp]
+26.0 +2.5 22 +25 +25 комфорт 1010.8 1008.9
03 19.02 С 1 10 км 8/0
[Ac trans Ci sp]
+24.4 +3.2 25 +24 +24 комфорт 1009.8 1007.0
06 19.02 С 1 10 км 6/0
[Ac trans Ci sp]
+22.6 +1.8 25 +22 +22 комфорт 1009.5 1007.6 +21.8
09 19.02 С 1 10 км 6/0
[Ac trans Ci sp]
+25.0 +0.4 20 +24 +27 комфорт 1011.0 1009.1
12 19.02 СВ 2 10 км 6/0
[Ac trans Ci sp]
+32.0 +3.7 17 +30 +41 жарко 1012.8 1010.9
15 19.02 СВ 2 10 км 4/0
[Ac trans Ci sp]
+37.4 +3.6 12 +34 +45 очень
жарко
1009.6 1007.7
18 19.02 С 3 10 км 4/0
[Ac trans]
+34.6 +1.8 13 +31 +32 жарко 1009.4 1007.5 +38.3
21 19.02 С 2 10 км 4/0
[Ac trans]
+27.5 +3.1 21 +26 +26 жарко 1010.3 1008.4
00 20.02 С 2 10 км 4/0
[Ac cast]
+24.3 +3.3 25 +24 +24 комфорт 1011.3 1009.4
03 20.02 С 1 10 км 1/0
[Ac trans]
+21.5 +4.1 32 +22 +22 комфорт 1010.5 1008.6

 

Местоположение метеостанции Матам (Сенегал): широта 15.65 долгота -13.25 высота над уровнем моря 17 м.

В архиве по умолчанию представлена погода в Матаме за последнюю неделю. Архивные данные за месяц целиком и за предыдущие месяцы, начиная с января 2011 года, Вы можете получить, выбрав интересующий диапазон дат из раскрывающегося списка и нажав кнопку "Ввод!".


*Определитесь, кто Вы:
робот инопланетянин человек

Внимание! Время в таблицах - всемирное. Для получения местного времени необходимо прибавить поправку, которая равна 0 ч.

Смотрите также архив погоды в соседних городах и на ближайших метеорологических станциях:

Погода в Каэди (Мавритания) (62 км)
Погода в Фатото (Гамбия) (198 км)
Погода в Лингере (Сенегал) (202 км)
Погода в Подоре (Сенегал) (214 км)
Погода в Тамбакунде (Сенегал) (214 км)
Погода в Киффе (Мавритания) (226 км)
Погода в Каесе (Мали) (238 км)
Погода в Бутилимите (Мавритания) (259 км)
Погода в Джорджтауне (Гамбия) (287 км)
Погода в Росо (Мавритания) (289 км)

Пояснения к столбцам:

Ветер - указаны скорость ветра в м/с - средняя за 10 мин, порывы в срок и между сроками (в фигурных скобках) и направление, откуда дует ветер: С - северный, СВ - северо-восточный, В - восточный, ЮВ - юго-восточный, Ю - южный, ЮЗ - юго-западный, З - западный, СЗ - северо-западный.
Видимость - горизонтальная дальность видимости в метрах или километрах. При видимости от 1 до 10 км при отсутствии осадков обычно наблюдается дымка, при ухудшении видимости до 1 км и менее - туман. В сухую погоду видимость может ухудшаться дымом, пылью или мглою.
Явления - указаны атмосферные явления, наблюдавшиеся в срок или в последний час перед сроком; фигурными скобками обозначены явления, наблюдавшиеся между сроками (за 1-3 часа до срока); квадратными скобками обозначены град или гололедные отложения с указанием их диаметра в мм.
Облачность - указаны через наклонную черту общая и нижняя облачность в баллах и высота нижней границы облаков в метрах; квадратными скобками обозначены формы облаков: Ci - перистые, Cs - перисто-слоистые, Cc - перисто-кучевые, Ac - высококучевые, As - высокослоистые, Sc - слоисто-кучевые, Ns - слоисто-дождевые, Cu - кучевые, Cb - кучево-дождевые. Подробнее классификацию облаков см. в Атласе облаков (PDF).
T - Температура воздуха - температура, измеренная на высоте 2 м над землей.
Td - Температура точки росы - температура, при понижении до которой содержащийся в воздухе водяной пар достигнет насыщения.
f - Относительная влажность воздуха - влажноcть воздуха, измеренная на высоте 2 м над землей.
Te - Эффективная температура - температура, которую ощущает одетый по сезону человек в тени. Характеристика душности погоды. При расчете учитывается влияние влажности воздуха и скорости ветра на теплоощущения человека.
Tes - Эффективная температура на солнце - температура, которую ощущает человек, с поправкой на солнечный нагрев. Характеристика знойности погоды. Зависит от высоты солнца над горизонтом, облачности и скорости ветра. Ночью, в пасмурную погоду, а также при ветре 12 м/с и более поправка равна нулю.
P - Атмосферное давление - приведенное к уровню моря атмосферное давление.
Po - Атмосферное давление - измеренное на уровне метеостанции атмосферное давление.
Tmin - Минимальная температура - минимум температуры воздуха на высоте 2 м над землей.
Tmax - Максимальная температура - максимум температуры воздуха на высоте 2 м над землей.
R - Количество осадков - Количество выпавших осадков за период времени, мм. При наведении курсора мыши на число - период времени, за который выпало указанное количество осадков.
R24 - Количество осадков - Количество выпавших осадков за 24 часа, мм.
S - Снежный покров - Высота снежного покрова, см. При наведении курсора мыши на число - состояние снежного покрова и степень покрытия местности в баллах.